{"data":{"norad_id":64280,"intl_designator":"2025-120AA","name":"STARLINK-34359","alt_names":[],"object_type":"PAYLOAD","status":"ACTIVE","operator":null,"country":"US","launch_date":"2025-06-04","launch_site_code":"AFWTR","launch_vehicle":null,"mission":null,"orbit_class":"UNKNOWN","rcs_meters":null,"size_class":null,"mass_kg":null,"dimensions":null,"purposes":["comms"],"wikipedia_slug":null,"has_3d_model":false,"image_url":null,"decayed_at":null,"tle_current":{"epoch":"2026-05-25T02:35:43.772064Z","epoch_age_seconds":61620,"freshness":"FRESH","line1":"1 64280U 25120AA  26145.10814551  .00010729  00000+0  37374-3 0  9998","line2":"2 64280  53.1576 121.9057 0001995 127.7568 232.3613 15.30208571 55613","mean_motion":15.30208571,"eccentricity":0.0001995,"inclination_deg":53.1576,"raan_deg":121.9057,"arg_perigee_deg":127.7568,"mean_anomaly_deg":232.3613,"bstar":0.00037374,"rev_number":5561,"period_min":94.104818603842,"perigee_km":473.82223944533,"apogee_km":476.55671671009,"semimajor_km":6853.3264780777,"source":"CELESTRAK","updated_at":"2026-05-25T13:38:20.363390Z"}}}